Location: Newark
(42.8481°N, 0.4872°E)
Time: 09:13:49
(UTC+00:00)

Vanguard 2 - Pass Details

Date: 05 November 2020
Orbit: 554 x 2937 km, 32.9° (Epoch: 26 November)

Event Time Altitude Azimuth Distance (km) Brightness Sun altitude
Rises 00:20:55 0° 275° (W) 6,285 - -61.6°
Reaches altitude 10° 00:26:20 10° 262° (W) 5,527 - -61.3°
Maximum altitude 00:37:36 22° 220° (SW) 4,818 - -60.4°
Drops below altitude 10° 00:49:04 10° 179° (S) 5,574 - -59.3°
Sets 00:54:40 0° 165° (SSE) 6,344 - -58.7°
